CPA333 VHHH-RPVM

Flight info

Callsign CPA333
Flight time 2h 11m
Altitude 39000
Route DALOL V642 NOMAN A461 AVMUP W16 MIA B462 IPATA W25 BATAY BATAY3P
Aircraft A35K/H-SDE2E3GHIJ3J4J5LM1ORWXY/LB1D1

Departure

Time 2026-04-30 08:27
Airport Hong Kong International Airport (VHHH)

Arrival

Time 2026-04-30 10:38
Airport Mactan Cebu International Airport (RPVM)
Time Latitude Longitude Altitude Speed Heading
2026-04-30 07:57 22.31538 113.92291 37 ft 0 kts 126°
2026-04-30 08:14 22.31538 113.92290 37 ft 2 kts 126°
2026-04-30 08:14 22.31548 113.92275 36 ft 2 kts 126°
2026-04-30 08:15 22.31558 113.92261 33 ft 2 kts 126°
2026-04-30 08:15 22.31567 113.92247 34 ft 2 kts 126°
2026-04-30 08:15 22.31577 113.92232 33 ft 2 kts 127°
2026-04-30 08:15 22.31585 113.92217 34 ft 2 kts 102°
2026-04-30 08:16 22.31586 113.92206 34 ft 2 kts 90°
2026-04-30 08:16 22.31585 113.92189 34 ft 2 kts 81°
2026-04-30 08:16 22.31583 113.92178 34 ft 1 kts 78°
2026-04-30 08:19 22.31585 113.92185 34 ft 3 kts 77°
2026-04-30 08:20 22.31592 113.92221 34 ft 7 kts 77°
2026-04-30 08:20 22.31608 113.92282 36 ft 10 kts 74°
2026-04-30 08:20 22.31633 113.92357 39 ft 11 kts 67°
2026-04-30 08:20 22.31663 113.92441 41 ft 13 kts 69°
2026-04-30 08:21 22.31699 113.92541 41 ft 16 kts 69°
2026-04-30 08:21 22.31735 113.92648 43 ft 14 kts 70°
2026-04-30 08:21 22.31768 113.92749 45 ft 15 kts 71°
2026-04-30 08:21 22.31805 113.92861 43 ft 16 kts 70°
2026-04-30 08:22 22.31837 113.92954 42 ft 7 kts 70°
2026-04-30 08:22 22.31860 113.93013 41 ft 7 kts 48°
2026-04-30 08:22 22.31877 113.93009 41 ft 1 kts 320°
2026-04-30 08:22 22.31880 113.92997 41 ft 3 kts 292°
2026-04-30 08:23 22.31885 113.92975 41 ft 3 kts 279°
2026-04-30 08:23 22.31887 113.92958 41 ft 2 kts 275°
2026-04-30 08:23 22.31888 113.92941 41 ft 2 kts 275°
2026-04-30 08:23 22.31892 113.92916 42 ft 5 kts 284°
2026-04-30 08:24 22.31916 113.92881 42 ft 7 kts 318°
2026-04-30 08:24 22.31945 113.92864 41 ft 0 kts 339°
2026-04-30 08:24 22.31951 113.92862 41 ft 0 kts 339°
2026-04-30 08:25 22.31966 113.92857 41 ft 5 kts 342°
2026-04-30 08:25 22.32021 113.92836 40 ft 10 kts 333°
2026-04-30 08:25 22.32050 113.92773 39 ft 10 kts 265°
2026-04-30 08:25 22.32047 113.92758 39 ft 0 kts 257°
2026-04-30 08:26 22.32047 113.92757 39 ft 0 kts 257°
2026-04-30 08:26 22.32044 113.92745 39 ft 5 kts 256°
2026-04-30 08:26 22.31981 113.92540 45 ft 65 kts 250°
2026-04-30 08:27 22.31749 113.91815 43 ft 136 kts 251°
2026-04-30 08:27 22.31366 113.90661 239 ft 179 kts 252°
2026-04-30 08:27 22.30883 113.89418 1109 ft 179 kts 250°
2026-04-30 08:27 22.30416 113.88166 1916 ft 184 kts 252°
2026-04-30 08:28 22.30004 113.86766 2307 ft 209 kts 255°
2026-04-30 08:28 22.29550 113.85193 2738 ft 229 kts 254°
2026-04-30 08:28 22.29034 113.83495 3313 ft 244 kts 253°
2026-04-30 08:28 22.28487 113.81753 4192 ft 243 kts 252°
2026-04-30 08:29 22.27944 113.80055 5290 ft 236 kts 252°
2026-04-30 08:29 22.27409 113.78389 6292 ft 236 kts 252°
2026-04-30 08:29 22.26869 113.76709 7173 ft 238 kts 252°
2026-04-30 08:29 22.26307 113.75013 8042 ft 242 kts 250°
2026-04-30 08:30 22.25441 113.73462 8653 ft 249 kts 229°
2026-04-30 08:30 22.24074 113.72292 8939 ft 253 kts 216°
2026-04-30 08:30 22.22494 113.71428 8990 ft 259 kts 201°
2026-04-30 08:30 22.20686 113.71269 8998 ft 268 kts 174°
2026-04-30 08:31 22.18904 113.71893 9001 ft 273 kts 161°
2026-04-30 08:31 22.17159 113.72717 8993 ft 274 kts 160°
2026-04-30 08:31 22.15415 113.73549 8998 ft 275 kts 160°
2026-04-30 08:31 22.13658 113.74375 8999 ft 275 kts 161°
2026-04-30 08:32 22.11972 113.75363 8999 ft 280 kts 148°
2026-04-30 08:32 22.10383 113.76695 9002 ft 297 kts 144°
2026-04-30 08:32 22.08778 113.78132 9004 ft 302 kts 143°
2026-04-30 08:32 22.07218 113.79657 8994 ft 306 kts 134°
2026-04-30 08:33 22.06240 113.81689 9077 ft 310 kts 106°
2026-04-30 08:33 22.05766 113.83976 9534 ft 315 kts 102°
2026-04-30 08:33 22.05335 113.86309 10336 ft 321 kts 103°
2026-04-30 08:33 22.04872 113.88740 10769 ft 342 kts 103°
2026-04-30 08:34 22.04370 113.91324 11131 ft 362 kts 103°
2026-04-30 08:34 22.03836 113.94046 11471 ft 381 kts 103°
2026-04-30 08:34 22.03277 113.96899 11891 ft 395 kts 103°
2026-04-30 08:34 22.02698 113.99815 12499 ft 402 kts 103°
2026-04-30 08:35 22.02107 114.02779 13140 ft 408 kts 103°
2026-04-30 08:35 22.01507 114.05786 13790 ft 413 kts 103°
2026-04-30 08:35 22.00900 114.08830 14374 ft 418 kts 103°
2026-04-30 08:35 22.00230 114.11895 14953 ft 422 kts 108°
2026-04-30 08:36 21.99098 114.14802 15557 ft 423 kts 118°
2026-04-30 08:36 21.97739 114.17631 16155 ft 427 kts 120°
2026-04-30 08:36 21.96347 114.20475 16750 ft 431 kts 120°
2026-04-30 08:36 21.94949 114.23348 17338 ft 435 kts 119°
2026-04-30 08:37 21.93540 114.26248 17942 ft 439 kts 120°
2026-04-30 08:37 21.92117 114.29175 18473 ft 443 kts 120°
2026-04-30 08:37 21.90684 114.32127 18999 ft 446 kts 120°
2026-04-30 08:37 21.89242 114.35099 19525 ft 449 kts 120°
2026-04-30 08:38 21.87791 114.38090 20046 ft 452 kts 120°
2026-04-30 08:38 21.86331 114.41099 20595 ft 455 kts 120°
2026-04-30 08:38 21.84955 114.44174 21109 ft 460 kts 114°
2026-04-30 08:38 21.83957 114.47421 21625 ft 464 kts 107°
2026-04-30 08:39 21.83086 114.50785 22144 ft 468 kts 107°
2026-04-30 08:39 21.82222 114.54178 22662 ft 472 kts 107°
2026-04-30 08:39 21.81347 114.57596 23183 ft 475 kts 107°
2026-04-30 08:39 21.80464 114.61030 23670 ft 479 kts 107°
2026-04-30 08:40 21.79569 114.64497 24086 ft 482 kts 107°
2026-04-30 08:40 21.78666 114.67987 24515 ft 486 kts 107°
2026-04-30 08:40 21.77756 114.71502 24963 ft 489 kts 107°
2026-04-30 08:40 21.76838 114.75040 25455 ft 493 kts 107°
2026-04-30 08:41 21.75912 114.78604 25951 ft 496 kts 107°
2026-04-30 08:41 21.74907 114.82168 26463 ft 499 kts 111°
2026-04-30 08:41 21.73458 114.85569 26976 ft 500 kts 122°
2026-04-30 08:41 21.71551 114.88688 27501 ft 501 kts 128°
2026-04-30 08:42 21.69483 114.91722 28004 ft 505 kts 130°
2026-04-30 08:42 21.67338 114.94726 28511 ft 508 kts 130°
2026-04-30 08:42 21.65156 114.97733 29010 ft 512 kts 131°
2026-04-30 08:42 21.62959 115.00764 29492 ft 516 kts 130°
2026-04-30 08:43 21.60760 115.03825 30021 ft 518 kts 130°
2026-04-30 08:43 21.58555 115.06903 30428 ft 522 kts 130°
2026-04-30 08:43 21.56338 115.10007 30782 ft 525 kts 130°
2026-04-30 08:43 21.54110 115.13135 31151 ft 529 kts 130°
2026-04-30 08:44 21.51877 115.16279 31508 ft 532 kts 130°
2026-04-30 08:44 21.49629 115.19450 31886 ft 535 kts 130°
2026-04-30 08:44 21.47374 115.22622 32395 ft 534 kts 130°
2026-04-30 08:44 21.45123 115.25784 32917 ft 532 kts 130°
2026-04-30 08:45 21.42875 115.28940 33410 ft 532 kts 130°
2026-04-30 08:45 21.40628 115.32091 33894 ft 531 kts 130°
2026-04-30 08:45 21.38383 115.35239 34301 ft 531 kts 130°
2026-04-30 08:45 21.36143 115.38379 34755 ft 529 kts 130°
2026-04-30 08:46 21.33907 115.41511 35151 ft 529 kts 130°
2026-04-30 08:46 21.31671 115.44640 35522 ft 528 kts 130°
2026-04-30 08:46 21.29460 115.47734 35899 ft 528 kts 130°
2026-04-30 08:46 21.27227 115.50857 36266 ft 528 kts 130°
2026-04-30 08:47 21.24992 115.53981 36622 ft 528 kts 130°
2026-04-30 08:47 21.22757 115.57103 36975 ft 528 kts 130°
2026-04-30 08:47 21.20528 115.60215 37324 ft 527 kts 130°
2026-04-30 08:47 21.18295 115.63331 37646 ft 527 kts 130°
2026-04-30 08:48 21.16065 115.66442 38040 ft 525 kts 130°
2026-04-30 08:48 21.13838 115.69547 38426 ft 524 kts 130°
2026-04-30 08:48 21.11623 115.72633 38724 ft 523 kts 130°
2026-04-30 08:48 21.09397 115.75732 38940 ft 524 kts 131°
2026-04-30 08:49 21.07177 115.78820 38976 ft 524 kts 131°
2026-04-30 08:49 21.02736 115.84994 38983 ft 523 kts 131°
2026-04-30 08:50 20.98284 115.91176 38968 ft 524 kts 130°
2026-04-30 08:50 20.93825 115.97361 38973 ft 525 kts 130°
2026-04-30 08:51 20.89367 116.03541 38978 ft 524 kts 130°
2026-04-30 08:51 20.84676 116.09458 38979 ft 518 kts 141°
2026-04-30 08:52 20.78942 116.13993 38977 ft 512 kts 151°
2026-04-30 08:52 20.72941 116.18091 38974 ft 512 kts 152°
2026-04-30 08:53 20.67923 116.21444 38968 ft 512 kts 152°
2026-04-30 08:53 20.61893 116.25490 38972 ft 513 kts 152°
2026-04-30 08:54 20.55868 116.29555 38961 ft 513 kts 152°
2026-04-30 08:54 20.49848 116.33625 38963 ft 512 kts 152°
2026-04-30 08:55 20.43825 116.37692 38962 ft 512 kts 152°
2026-04-30 08:55 20.37800 116.41755 38963 ft 512 kts 152°
2026-04-30 08:56 20.31775 116.45815 38964 ft 512 kts 152°
2026-04-30 08:56 20.25744 116.49873 38959 ft 513 kts 152°
2026-04-30 08:57 20.19702 116.53936 38960 ft 514 kts 152°
2026-04-30 08:57 20.13698 116.57970 38955 ft 513 kts 152°
2026-04-30 08:58 20.07677 116.62014 38956 ft 511 kts 152°
2026-04-30 08:58 20.01699 116.66099 38951 ft 513 kts 147°
2026-04-30 08:59 19.96437 116.71263 38955 ft 518 kts 137°
2026-04-30 08:59 19.91531 116.76888 38953 ft 519 kts 135°
2026-04-30 09:00 19.86673 116.82582 38952 ft 519 kts 135°
2026-04-30 09:00 19.81809 116.88255 38954 ft 519 kts 135°
2026-04-30 09:01 19.76953 116.93885 38953 ft 516 kts 136°
2026-04-30 09:01 19.72095 116.99500 38949 ft 515 kts 136°
2026-04-30 09:02 19.64814 117.07903 38951 ft 516 kts 136°
2026-04-30 09:02 19.59958 117.13503 38943 ft 516 kts 136°
2026-04-30 09:03 19.55105 117.19095 38948 ft 515 kts 136°
2026-04-30 09:03 19.50266 117.24666 38950 ft 514 kts 136°
2026-04-30 09:04 19.45457 117.30197 38947 ft 513 kts 136°
2026-04-30 09:04 19.40614 117.35761 38944 ft 514 kts 136°
2026-04-30 09:05 19.35768 117.41323 38947 ft 514 kts 136°
2026-04-30 09:05 19.30921 117.46882 38947 ft 514 kts 136°
2026-04-30 09:06 19.26085 117.52423 38941 ft 513 kts 136°
2026-04-30 09:06 19.21237 117.57973 38932 ft 513 kts 136°
2026-04-30 09:07 19.16399 117.63506 38946 ft 512 kts 136°
2026-04-30 09:07 19.11564 117.69030 38941 ft 512 kts 136°
2026-04-30 09:08 19.06733 117.74544 38941 ft 512 kts 136°
2026-04-30 09:08 19.01897 117.80061 38941 ft 511 kts 136°
2026-04-30 09:09 18.97059 117.85575 38943 ft 511 kts 136°
2026-04-30 09:09 18.92217 117.91084 38941 ft 512 kts 136°
2026-04-30 09:10 18.87374 117.96590 38941 ft 512 kts 136°
2026-04-30 09:10 18.82530 118.02093 38938 ft 511 kts 136°
2026-04-30 09:11 18.77693 118.07586 38935 ft 510 kts 137°
2026-04-30 09:11 18.72892 118.13031 38938 ft 510 kts 137°
2026-04-30 09:12 18.68060 118.18505 38939 ft 510 kts 137°
2026-04-30 09:12 18.63227 118.23976 38939 ft 510 kts 137°
2026-04-30 09:13 18.58397 118.29439 38938 ft 510 kts 137°
2026-04-30 09:13 18.53561 118.34905 38939 ft 510 kts 137°
2026-04-30 09:14 18.48726 118.40366 38940 ft 509 kts 137°
2026-04-30 09:14 18.43901 118.45810 38941 ft 507 kts 137°
2026-04-30 09:15 18.39087 118.51235 38941 ft 507 kts 137°
2026-04-30 09:15 18.34271 118.56656 38939 ft 507 kts 137°
2026-04-30 09:16 18.29454 118.62075 38938 ft 507 kts 137°
2026-04-30 09:16 18.24637 118.67490 38939 ft 507 kts 137°
2026-04-30 09:17 18.19827 118.72894 38938 ft 505 kts 137°
2026-04-30 09:17 18.15027 118.78280 38939 ft 505 kts 137°
2026-04-30 09:18 18.10221 118.83668 38928 ft 505 kts 137°
2026-04-30 09:18 18.05423 118.89044 38939 ft 503 kts 137°
2026-04-30 09:19 18.00568 118.94326 38939 ft 499 kts 143°
2026-04-30 09:19 17.94935 118.98422 38938 ft 490 kts 154°
2026-04-30 09:20 17.88990 119.01939 38936 ft 489 kts 156°
2026-04-30 09:20 17.83045 119.05344 38936 ft 489 kts 156°
2026-04-30 09:21 17.77037 119.08795 38938 ft 489 kts 155°
2026-04-30 09:21 17.71067 119.12243 38939 ft 490 kts 155°
2026-04-30 09:22 17.65137 119.15674 38933 ft 490 kts 155°
2026-04-30 09:22 17.59166 119.19126 38934 ft 490 kts 155°
2026-04-30 09:23 17.53194 119.22576 38933 ft 490 kts 155°
2026-04-30 09:23 17.47221 119.26023 38932 ft 490 kts 155°
2026-04-30 09:24 17.41249 119.29467 38935 ft 490 kts 155°
2026-04-30 09:24 17.35285 119.32904 38929 ft 489 kts 155°
2026-04-30 09:25 17.29326 119.36334 38931 ft 489 kts 155°
2026-04-30 09:25 17.23374 119.39759 38927 ft 489 kts 155°
2026-04-30 09:26 17.17415 119.43185 38931 ft 489 kts 155°
2026-04-30 09:26 17.11455 119.46608 38930 ft 489 kts 155°
2026-04-30 09:27 17.05496 119.50030 38924 ft 489 kts 155°
2026-04-30 09:27 16.99535 119.53450 38930 ft 489 kts 155°
2026-04-30 09:28 16.93579 119.56863 38931 ft 489 kts 155°
2026-04-30 09:28 16.87607 119.60284 38918 ft 489 kts 155°
2026-04-30 09:29 16.81641 119.63700 38930 ft 489 kts 155°
2026-04-30 09:29 16.75674 119.67113 38915 ft 489 kts 155°
2026-04-30 09:30 16.69708 119.70522 38927 ft 489 kts 155°
2026-04-30 09:30 16.63745 119.73928 38925 ft 488 kts 155°
2026-04-30 09:31 16.57790 119.77328 38920 ft 488 kts 155°
2026-04-30 09:31 16.51824 119.80731 38917 ft 488 kts 155°
2026-04-30 09:32 16.45868 119.84125 38908 ft 489 kts 155°
2026-04-30 09:32 16.39896 119.87526 38916 ft 489 kts 155°
2026-04-30 09:33 16.33959 119.90905 38919 ft 489 kts 155°
2026-04-30 09:33 16.27981 119.94305 38908 ft 490 kts 155°
2026-04-30 09:34 16.22002 119.97703 38911 ft 490 kts 155°
2026-04-30 09:34 16.16023 120.01100 38917 ft 490 kts 155°
2026-04-30 09:35 16.10043 120.04494 38914 ft 489 kts 155°
2026-04-30 09:35 16.04062 120.07886 38911 ft 490 kts 154°
2026-04-30 09:36 15.98090 120.11271 38909 ft 489 kts 154°
2026-04-30 09:36 15.92111 120.14658 38911 ft 490 kts 154°
2026-04-30 09:37 15.86114 120.18052 38911 ft 491 kts 154°
2026-04-30 09:37 15.80119 120.21443 38908 ft 491 kts 154°
2026-04-30 09:38 15.74137 120.24825 38913 ft 490 kts 154°
2026-04-30 09:38 15.68164 120.28200 38912 ft 488 kts 154°
2026-04-30 09:39 15.62203 120.31568 38909 ft 488 kts 154°
2026-04-30 09:39 15.56238 120.34930 38907 ft 488 kts 154°
2026-04-30 09:40 15.50274 120.38293 38907 ft 488 kts 154°
2026-04-30 09:40 15.45324 120.41088 38896 ft 488 kts 154°
2026-04-30 09:41 15.39356 120.44448 38888 ft 488 kts 154°
2026-04-30 09:41 15.32409 120.48355 38887 ft 489 kts 154°
2026-04-30 09:42 15.27399 120.51167 38888 ft 489 kts 154°
2026-04-30 09:42 15.21414 120.54528 38890 ft 489 kts 154°
2026-04-30 09:43 15.15477 120.57979 38889 ft 490 kts 150°
2026-04-30 09:43 15.09799 120.61897 38886 ft 491 kts 148°
2026-04-30 09:44 15.04153 120.65898 38890 ft 492 kts 148°
2026-04-30 09:44 14.98502 120.69809 38885 ft 492 kts 149°
2026-04-30 09:45 14.92792 120.73704 38891 ft 492 kts 149°
2026-04-30 09:45 14.87067 120.77590 38887 ft 492 kts 149°
2026-04-30 09:46 14.81351 120.81463 38888 ft 492 kts 149°
2026-04-30 09:46 14.75631 120.85342 38891 ft 492 kts 149°
2026-04-30 09:47 14.69912 120.89222 38889 ft 492 kts 149°
2026-04-30 09:47 14.64189 120.93108 38887 ft 492 kts 149°
2026-04-30 09:48 14.58456 120.96986 38861 ft 492 kts 149°
2026-04-30 09:48 14.52752 121.00913 38859 ft 495 kts 145°
2026-04-30 09:49 14.47802 121.05862 38859 ft 498 kts 133°
2026-04-30 09:49 14.43315 121.11319 38860 ft 499 kts 131°
2026-04-30 09:50 14.38898 121.16844 38859 ft 499 kts 131°
2026-04-30 09:50 14.34469 121.22361 38883 ft 500 kts 131°
2026-04-30 09:51 14.30027 121.27866 38902 ft 499 kts 131°
2026-04-30 09:51 14.25582 121.33354 38923 ft 499 kts 131°
2026-04-30 09:52 14.21133 121.38837 38922 ft 498 kts 131°
2026-04-30 09:52 14.16683 121.44323 38922 ft 499 kts 131°
2026-04-30 09:53 14.12232 121.49804 38923 ft 499 kts 131°
2026-04-30 09:53 14.07783 121.55282 38924 ft 499 kts 131°
2026-04-30 09:54 14.03329 121.60763 38928 ft 499 kts 132°
2026-04-30 09:54 13.98876 121.66241 38924 ft 497 kts 131°
2026-04-30 09:55 13.94470 121.71656 38924 ft 496 kts 131°
2026-04-30 09:55 13.90042 121.77095 38923 ft 496 kts 131°
2026-04-30 09:56 13.85277 121.82196 38924 ft 493 kts 143°
2026-04-30 09:56 13.79837 121.86500 38922 ft 493 kts 145°
2026-04-30 09:57 13.74292 121.90664 38918 ft 493 kts 145°
2026-04-30 09:57 13.68745 121.94808 38915 ft 493 kts 146°
2026-04-30 09:58 13.63203 121.98971 38916 ft 493 kts 145°
2026-04-30 09:58 13.57671 122.03138 38915 ft 493 kts 145°
2026-04-30 09:59 13.46613 122.11463 38916 ft 492 kts 144°
2026-04-30 10:00 13.38323 122.17697 38911 ft 492 kts 144°
2026-04-30 10:01 13.30032 122.23925 38909 ft 492 kts 144°
2026-04-30 10:02 13.21765 122.30130 38912 ft 490 kts 144°
2026-04-30 10:02 13.16263 122.34256 38908 ft 490 kts 144°
2026-04-30 10:03 13.10758 122.38384 38910 ft 490 kts 144°
2026-04-30 10:03 13.05256 122.42505 38913 ft 490 kts 144°
2026-04-30 10:04 12.99791 122.46597 38907 ft 490 kts 144°
2026-04-30 10:04 12.94289 122.50714 38907 ft 489 kts 144°
2026-04-30 10:05 12.88793 122.54825 38911 ft 489 kts 144°
2026-04-30 10:05 12.83284 122.58943 38914 ft 489 kts 144°
2026-04-30 10:06 12.77781 122.63054 38906 ft 489 kts 144°
2026-04-30 10:06 12.72282 122.67160 38911 ft 489 kts 144°
2026-04-30 10:07 12.66778 122.71268 38916 ft 489 kts 144°
2026-04-30 10:07 12.61282 122.75367 38909 ft 487 kts 144°
2026-04-30 10:08 12.55824 122.79436 38909 ft 484 kts 145°
2026-04-30 10:08 12.50393 122.83482 38911 ft 484 kts 145°
2026-04-30 10:09 12.44948 122.87536 38909 ft 484 kts 145°
2026-04-30 10:09 12.39514 122.91582 38910 ft 482 kts 145°
2026-04-30 10:10 12.34114 122.95599 38908 ft 479 kts 145°
2026-04-30 10:10 12.28729 122.99605 38908 ft 478 kts 145°
2026-04-30 10:11 12.23402 123.03561 38906 ft 475 kts 145°
2026-04-30 10:11 12.18038 123.07544 38907 ft 475 kts 145°
2026-04-30 10:12 12.12731 123.11483 38910 ft 475 kts 145°
2026-04-30 10:12 12.07388 123.15448 38888 ft 473 kts 145°
2026-04-30 10:12 12.04730 123.17419 38664 ft 472 kts 145°
2026-04-30 10:13 12.02066 123.19394 38422 ft 474 kts 145°
2026-04-30 10:13 11.99393 123.21376 38169 ft 476 kts 145°
2026-04-30 10:13 11.96716 123.23359 37897 ft 477 kts 145°
2026-04-30 10:13 11.94024 123.25354 37630 ft 480 kts 144°
2026-04-30 10:14 11.91317 123.27360 37380 ft 482 kts 144°
2026-04-30 10:14 11.88600 123.29372 37127 ft 483 kts 144°
2026-04-30 10:14 11.83159 123.33401 36627 ft 483 kts 144°
2026-04-30 10:15 11.80433 123.35418 36390 ft 484 kts 144°
2026-04-30 10:15 11.77707 123.37434 36140 ft 484 kts 144°
2026-04-30 10:15 11.74978 123.39453 35893 ft 485 kts 144°
2026-04-30 10:15 11.72246 123.41474 35681 ft 485 kts 145°
2026-04-30 10:16 11.69510 123.43496 35440 ft 486 kts 145°
2026-04-30 10:16 11.66773 123.45519 35200 ft 486 kts 145°
2026-04-30 10:16 11.64070 123.47516 34968 ft 486 kts 145°
2026-04-30 10:17 11.58611 123.51548 33776 ft 485 kts 144°
2026-04-30 10:17 11.53114 123.55605 32042 ft 489 kts 144°
2026-04-30 10:17 11.50350 123.57645 31175 ft 492 kts 143°
2026-04-30 10:18 11.47588 123.59682 30289 ft 495 kts 143°
2026-04-30 10:18 11.44803 123.61737 29276 ft 500 kts 143°
2026-04-30 10:18 11.41981 123.63819 28424 ft 500 kts 143°
2026-04-30 10:19 11.36406 123.67928 27120 ft 490 kts 143°
2026-04-30 10:19 11.33652 123.69958 26460 ft 486 kts 143°
2026-04-30 10:19 11.30920 123.71971 25804 ft 482 kts 143°
2026-04-30 10:19 11.28217 123.73961 25155 ft 479 kts 143°
2026-04-30 10:20 11.25524 123.75944 24503 ft 475 kts 143°
2026-04-30 10:20 11.20214 123.79854 23175 ft 467 kts 142°
2026-04-30 10:20 11.17573 123.81739 22482 ft 462 kts 146°
2026-04-30 10:21 11.14673 123.83113 21770 ft 461 kts 161°
2026-04-30 10:21 11.11519 123.83613 21106 ft 459 kts 178°
2026-04-30 10:21 11.08361 123.83212 20457 ft 458 kts 192°
2026-04-30 10:21 11.05315 123.82330 19813 ft 454 kts 195°
2026-04-30 10:22 11.02302 123.81414 19157 ft 450 kts 194°
2026-04-30 10:22 10.99307 123.80528 18498 ft 446 kts 194°
2026-04-30 10:22 10.96329 123.79668 17800 ft 443 kts 194°
2026-04-30 10:22 10.93372 123.78827 17101 ft 439 kts 194°
2026-04-30 10:23 10.90486 123.78013 16441 ft 434 kts 193°
2026-04-30 10:23 10.87593 123.77200 15787 ft 429 kts 193°
2026-04-30 10:23 10.84728 123.76398 15131 ft 425 kts 193°
2026-04-30 10:23 10.81890 123.75605 14468 ft 421 kts 193°
2026-04-30 10:24 10.79079 123.74822 13825 ft 417 kts 193°
2026-04-30 10:24 10.76291 123.74049 13111 ft 413 kts 193°
2026-04-30 10:24 10.73541 123.73280 12448 ft 408 kts 193°
2026-04-30 10:24 10.70831 123.72522 11906 ft 400 kts 193°
2026-04-30 10:25 10.68163 123.71777 11301 ft 394 kts 193°
2026-04-30 10:25 10.65545 123.71047 10834 ft 382 kts 193°
2026-04-30 10:25 10.63106 123.70362 10697 ft 346 kts 192°
2026-04-30 10:25 10.60895 123.69743 10565 ft 315 kts 192°
2026-04-30 10:26 10.58849 123.69177 10443 ft 297 kts 192°
2026-04-30 10:26 10.56903 123.68634 10325 ft 285 kts 192°
2026-04-30 10:26 10.55001 123.68105 10206 ft 282 kts 192°
2026-04-30 10:26 10.53107 123.67580 10092 ft 282 kts 192°
2026-04-30 10:27 10.51214 123.67054 9974 ft 283 kts 192°
2026-04-30 10:27 10.49259 123.66514 9864 ft 298 kts 192°
2026-04-30 10:27 10.47270 123.65962 9536 ft 296 kts 192°
2026-04-30 10:27 10.45280 123.65408 9023 ft 297 kts 192°
2026-04-30 10:28 10.43279 123.64850 8644 ft 297 kts 192°
2026-04-30 10:28 10.41288 123.64296 8303 ft 296 kts 192°
2026-04-30 10:28 10.39310 123.63745 7984 ft 294 kts 192°
2026-04-30 10:28 10.37341 123.63203 7660 ft 292 kts 191°
2026-04-30 10:29 10.35350 123.62989 7324 ft 285 kts 171°
2026-04-30 10:29 10.33520 123.63606 7010 ft 275 kts 144°
2026-04-30 10:29 10.32070 123.64838 6702 ft 271 kts 133°
2026-04-30 10:29 10.30749 123.66195 6411 ft 269 kts 131°
2026-04-30 10:30 10.29461 123.67532 6101 ft 268 kts 132°
2026-04-30 10:30 10.28138 123.68894 5793 ft 267 kts 132°
2026-04-30 10:30 10.26845 123.70218 5493 ft 267 kts 132°
2026-04-30 10:30 10.25534 123.71559 5186 ft 266 kts 132°
2026-04-30 10:31 10.24230 123.72888 4909 ft 266 kts 132°
2026-04-30 10:31 10.22923 123.74219 4601 ft 265 kts 132°
2026-04-30 10:31 10.21624 123.75539 4267 ft 264 kts 132°
2026-04-30 10:31 10.20327 123.76857 3970 ft 263 kts 132°
2026-04-30 10:32 10.19068 123.78132 3837 ft 247 kts 132°
2026-04-30 10:32 10.18272 123.78937 3788 ft 232 kts 132°
2026-04-30 10:32 10.17184 123.80046 3681 ft 211 kts 130°
2026-04-30 10:32 10.16275 123.81580 3571 ft 177 kts 102°
2026-04-30 10:33 10.16266 123.82370 3497 ft 165 kts 74°
2026-04-30 10:33 10.16662 123.83395 3411 ft 148 kts 61°
2026-04-30 10:33 10.17233 123.84192 3326 ft 135 kts 51°
2026-04-30 10:33 10.17870 123.84890 3196 ft 135 kts 48°
2026-04-30 10:34 10.18522 123.85579 3090 ft 138 kts 47°
2026-04-30 10:34 10.19202 123.86269 2914 ft 138 kts 46°
2026-04-30 10:34 10.19852 123.86926 2728 ft 137 kts 47°
2026-04-30 10:34 10.20526 123.87610 2539 ft 137 kts 46°
2026-04-30 10:35 10.21201 123.88293 2376 ft 137 kts 45°
2026-04-30 10:35 10.21881 123.88981 2170 ft 138 kts 45°
2026-04-30 10:35 10.22558 123.89665 1996 ft 138 kts 46°
2026-04-30 10:35 10.23237 123.90352 1797 ft 137 kts 45°
2026-04-30 10:36 10.23911 123.91033 1636 ft 137 kts 46°
2026-04-30 10:36 10.24589 123.91719 1437 ft 138 kts 45°
2026-04-30 10:36 10.25269 123.92406 1275 ft 138 kts 44°
2026-04-30 10:36 10.25951 123.93095 1087 ft 138 kts 45°
2026-04-30 10:37 10.26633 123.93784 905 ft 138 kts 45°
2026-04-30 10:37 10.27311 123.94469 715 ft 136 kts 45°
2026-04-30 10:37 10.27984 123.95153 511 ft 137 kts 45°
2026-04-30 10:37 10.28648 123.95843 335 ft 136 kts 45°
2026-04-30 10:38 10.29317 123.96512 212 ft 135 kts 44°
2026-04-30 10:38 10.29986 123.97177 51 ft 132 kts 45°
2026-04-30 10:38 10.30568 123.97758 40 ft 88 kts 45°
2026-04-30 10:38 10.30850 123.98042 41 ft 48 kts 45°
2026-04-30 10:39 10.31070 123.98250 43 ft 40 kts 34°
2026-04-30 10:39 10.31254 123.98339 45 ft 2 kts 17°
2026-04-30 10:39 10.31275 123.98345 45 ft 5 kts 15°
2026-04-30 10:39 10.31285 123.98347 45 ft 0 kts 12°
2026-04-30 10:40 10.31286 123.98347 45 ft 1 kts 12°
2026-04-30 10:40 10.31303 123.98350 45 ft 4 kts 10°
2026-04-30 10:40 10.31344 123.98346 45 ft 7 kts 343°
2026-04-30 10:40 10.31396 123.98314 45 ft 10 kts 323°
2026-04-30 10:41 10.31442 123.98253 46 ft 9 kts 276°
2026-04-30 10:41 10.31419 123.98206 44 ft 9 kts 229°
2026-04-30 10:41 10.31368 123.98152 45 ft 11 kts 225°
2026-04-30 10:41 10.31311 123.98095 45 ft 11 kts 225°
2026-04-30 10:42 10.31259 123.98042 45 ft 10 kts 227°
2026-04-30 10:42 10.31245 123.97990 45 ft 6 kts 283°
2026-04-30 10:42 10.31262 123.97959 45 ft 4 kts 306°
2026-04-30 10:42 10.31283 123.97936 45 ft 5 kts 313°
2026-04-30 10:43 10.31303 123.97907 45 ft 3 kts 282°
2026-04-30 10:43 10.31299 123.97878 45 ft 5 kts 263°
2026-04-30 10:43 10.31302 123.97850 45 ft 1 kts 295°
2026-04-30 10:43 10.31305 123.97847 45 ft 2 kts 309°
2026-04-30 10:44 10.31323 123.97826 45 ft 5 kts 312°
2026-04-30 10:44 10.31345 123.97802 44 ft 4 kts 314°
2026-04-30 10:44 10.31355 123.97791 44 ft 0 kts 314°
2026-04-30 10:45 10.31356 123.97791 44 ft 0 kts 314°